Regional Weather Roundup
Issued by NWS

Home | Current Version | Previous Version | Text Only | Print | Product List | Glossary On
Versions: 1 2 3 4 5 6 7 8 9 10 11 12 13 14 15 16 17 18 19 20 21 22 23 24 25 26 27
000
ASUS46 KPQR 290110
RWROR

OREGON REGIONAL WEATHER ROUNDUP
NATIONAL WEATHER SERVICE PORTLAND OR
600 PM PDT SAT MAY 28 2016

NOTE: "FAIR" INDICATES FEW OR NO CLOUDS BELOW 12,000 FEET WITH
NO SIGNIFICANT WEATHER AND/OR OBSTRUCTIONS TO VISIBILITY.

ORZ001>013-290200-
NORTHWEST OREGON


CITY           SKY/WX    TMP DP  RH WIND       PRES   REMARKS
ASTORIA        CLOUDY    58  50  75 S13G21    30.05F
NEWPORT        SUNNY     59  50  72 NW5       30.11F
PORTLAND       PTSUNNY   72  43  35 N5        30.00F
VANCOUVER WA   CLOUDY    70  45  40 SW3       30.00F
SCAPPOOSE      PTSUNNY   68  47  46 NE3       30.00F
HILLSBORO      PTSUNNY   71  46  40 NW6       30.00F
AURORA         MOSUNNY   71  46  40 S5        30.01F
MCMINNVILLE    SUNNY     72  46  39 SW13      30.01F
SALEM          SUNNY     74  46  36 N8        29.99F
CORVALLIS        N/A     72  39  30 NW15      30.03F
EUGENE         MOSUNNY   73  48  41 NE8       30.01F
$$

ORZ021-028-290200-
SOUTHWEST OREGON


CITY           SKY/WX    TMP DP  RH WIND       PRES   REMARKS
NORTH BEND     SUNNY     61  50  67 N14       30.09S
BROOKINGS      SUNNY     67  45  45 NW15G24   29.95S
ROSEBURG       SUNNY     78  41  26 N13       29.98S
SEXTON SUMMIT  SUNNY     63  40  42 VRB5      30.04S
MEDFORD        SUNNY     80  39  23 NW8       29.92F
$$

ORZ014>016-041-290200-
COLUMBIA GORGE


CITY           SKY/WX    TMP DP  RH WIND       PRES   REMARKS
TROUTDALE      SUNNY     72  42  34 NW5       30.00F
THE DALLES     SUNNY     75  42  30 W15       29.95F
$$

ORZ029>031-041-044-049-050-061>064-502-503-505>511-290200-
EASTERN OREGON


CITY           SKY/WX    TMP DP  RH WIND       PRES   REMARKS
REDMOND        MOSUNNY   72  31  22 VRB5      29.96F
BEND           PTSUNNY   70  32  24 N5        29.97F
PRINEVILLE     MOSUNNY   68  34  28 N6        29.98S
KLAMATH FALLS  MOSUNNY   72  28  19 VRB6      29.99F
LAKEVIEW       MOSUNNY   68  28  22 S6        30.03F
HERMISTON      MOSUNNY   76  40  27 NE7       29.94F
PENDLETON      SUNNY     71  35  26 N6        29.96F
JOHN DAY         N/A    N/A N/A N/A MISG        N/A
MEACHAM        MOSUNNY   62  32  32 CALM      30.02F
LA GRANDE      MOSUNNY   68  36  30 CALM      29.98F
BAKER CITY     SUNNY     65  39  38 W10       30.00F
BURNS          SUNNY     68  28  22 S9        30.01F
ROME             N/A     73  17  12 NE7       29.99F
ONTARIO        SUNNY     73  29  19 VRB3      29.99F
$$




USA.gov is the U.S. government's official web portal to all federal, state and local government web resources and services.